355  
ASUS44 KLIX 240510  
RWRLIX  
NEW ORLEANS REGIONAL WEATHER ROUNDUP  
NATIONAL WEATHER SERVICE NEW ORLEANS LA  
1200 AM CDT SUN JUN 24 2018  
 
NOTE: "FAIR" INDICATES FEW OR NO CLOUDS BELOW 12,000 FEET WITH NO  
SIGNIFICANT WEATHER AND/OR S TO VISIBILITY
.  
SKY/WX - SKY CONDITION AND SIGNIFICANT WEATHER.  
TMP - AIR TEMPERATURE. DP - DEWPOINT TEMPERATURE.  
RH - RELATIVE HUMIDITY. PRES - PRESSURE.  
HI - HEAT INDEX. WCI - WIND CHILL INDEX.  
 
* THESE STATIONS ARE NOT NWS OR FAA STATIONS AND ARE NOT UNDER  
NWS QUALITY CONTROL.  
 
LAZ038-040-048-061>063-065>067-069-240600-  
SOUTHEAST LOUISIANA  
 
CITY SKY/WX TMP DP RH WIND PRES REMARKS
 
N.O. INTL ARPT FAIR 81 78 91 S7 29.96S  
N.O. LAKEFRONT FAIR 82 75 79 S10 29.96S  
N.O. DOWNTOWN* FAIR 84 76 76 S7 29.97F  
RESERVE* N/A 81 76 84 S7 29.96S  
SLIDELL FAIR 83 75 77 S6 29.95S  
BATON ROUGE FAIR 80 75 84 S8 29.93S  
BOOTHVILLE FAIR 85 79 82 S12 29.98S HX 98  
BELLE CHASSE FAIR 81 79 94 S9 29.96S  
BOGALUSA* FAIR 82 75 79 SW3 29.96R  
GALLIANO* FAIR 81 75 81 S7 29.96F  
NEW ROADS* FAIR 79 75 89 S6 29.93S  
GONZALES* FAIR 79 75 89 S3 29.94S  
HAMMOND* FAIR 79 73 83 SW7 29.95S  
HOUMA* FAIR 81 77 86 S7 29.96F  
PORT FOURCHON* MOCLDY 84 79 84 S12 29.98S HX 96  
 

 
 
MSZ070-080>082-240600-  
SOUTHERN MISSISSIPPI  
 
CITY SKY/WX TMP DP RH WIND PRES REMARKS
 
MCCOMB FAIR 78 72 81 S6 29.95R  
GULFPORT FAIR 85 76 74 SW8 29.96R  
BILOXI FAIR 83 76 79 SW12 29.96S  
PASCAGOULA FAIR 83 77 82 S7 29.97S  
 

 
 
COASTAL OBSERVATIONS  
LAKE AND NEARSHORE STATIONS  
 
STATION/POSITION TIME SKY/WX TEMP WIND PRES WAVE
 
AIR SEA DIR/SP/G HT/PER  
(UTC) (F) (DEG/KT/KT) (MB) (FT/S)  
WAVELAND YACHT 0442 83 87 220/ 10/ 14 1014.5  
GRAND ISLE 0442 84 86 190/ 6/ 11 1015.1  
SOUTHWEST PASS 0442 84 83 180/ 14/ 17 1015.9  
NEW CANAL 0442 83 86 190/ 6/ 10 1014.6  
SHELL BEACH 0442 81 89 180/ 6/ 7 1015.0  
 
OFFSHORE STATIONS  
 
STATION/POSITION TIME SKY/WX TEMP WIND PRES WAVE
 
AIR SEA DIR/SP/G HT/PER  
(UTC) (F) (DEG/KT/KT) (MB) (FT/S)  
64 S DAUPHIN ISL 0450 85 190/ 14/ 16 1015.9 3/ 5  
 

 
 
 
 
CLICK HERE TO GO TO PREVIOUS BULLETINS.

The Nexlab LA Page
The Nexlab MS Page Main Text Page